Regional Weather Roundup
Issued by NWS

Home | Current Version | Previous Version | Text Only | Print | Product List | Glossary Off
Versions: 1 2 3 4 5 6 7 8 9 10 11 12 13 14 15 16 17 18 19 20 21 22 23 24 25 26 27 28 29 30 31 32 33 34 35 36 37 38 39 40 41 42 43 44 45 46 47 48 49 50

000
ASUS44 KMEG 240700
RWRTN
TENNESSEE HOURLY STATE WEATHER ROUNDUP
NATIONAL WEATHER SERVICE MEMPHIS TN
200 AM CDT FRI MAR 24 2017

TNZ002-004-019-021-049-052-054-088>092-240800-
WEST TENNESSEE

CITY           SKY/WX    TMP DP  RH WIND       PRES   REMARKS
MEMPHIS INTL   CLEAR     70  55  59 S15G21    30.11R
NWS MEMPHIS      N/A     69 N/A N/A MISG        N/A
JACKSON        CLEAR     68  55  63 S8G22     30.13S
DYERSBURG      CLEAR     66  53  63 SE8       30.10S
PARIS          CLEAR     61  48  63 S12       30.14S
$$

TNZ008-025-027-028-033-062-065-066-240800-
NORTH MIDDLE TENNESSEE

CITY           SKY/WX    TMP DP  RH WIND       PRES   REMARKS
NASHVILLE      CLEAR     60  44  55 S14       30.24R
CLARKSVILLE    CLEAR     62  47  57 S12G18    30.17R
SMYRNA         CLEAR     59  44  57 S10       30.26R
CROSSVILLE     CLEAR     53  36  52 S10G21    30.32S
$$

TNZ061-075-076-078-094-096-097-240800-
SOUTH MIDDLE TENNESSEE

CITY           SKY/WX    TMP DP  RH WIND       PRES   REMARKS
TULLAHOMA      CLEAR     55  39  54 S9        30.29R
WINCHESTER     CLEAR     57  43  58 SE17      30.28S
MCMINNVILLE    CLEAR     57  43  58 S7        30.28S
COLUMBIA       CLEAR     61  52  72 S15       30.22S
SHELBYVILLE    CLEAR     61  45  55 S13       30.27R
$$

TNZ017-018-042-046-047-240800-
NORTHEAST TENNESSEE

CITY           SKY/WX    TMP DP  RH WIND       PRES   REMARKS
TRI CITIES     PTCLDY    50  28  42 SE5       30.38S
$$

TNZ012-013-036-069-073-074-240800-
CENTRAL EAST TENNESSEE

CITY           SKY/WX    TMP DP  RH WIND       PRES   REMARKS
KNOXVILLE      MOCLDY    53  37  54 SW7       30.34S
OAK RIDGE      CLOUDY    57  34  41 CALM      30.36F
GATLINBURG     CLEAR     43  37  81 CALM      30.35S
$$

TNZ083-085-099-240800-
SOUTHEAST TENNESSEE

CITY           SKY/WX    TMP DP  RH WIND       PRES   REMARKS
CHATTANOOGA    CLOUDY    59  34  39 S12G18    30.36S
$$

SKY/WX REPORTED AS FAIR MEANS FEW OR NO CLOUDS BELOW
12 THOUSAND FEET.




USA.gov is the U.S. government's official web portal to all federal, state and local government web resources and services.